Location: Newark
(33.2833°N, 8.3333°W)
Time: 01:30:06
(UTC+00:00)

Hubble Space Telescope - Pass Details

Date: 21 September 2019
Orbit: 536 x 540 km, 28.5° (Epoch: 20 October)

Event Time Altitude Azimuth Distance (km) Brightness Sun altitude
Exits shadow 04:25:57 26° 151° (SSE) 1,066 2.3 -24.3°
Drops below altitude 10° 04:28:16 10° 125° (SE) 1,777 3.9 -23.9°
Sets 04:30:40 0° 116° (ESE) 2,668 5.0 -23.4°
